SQ5LTL-2 Weather Reports


time (UTC)temp
C
wind
direction
speed
KPH
gust
KPH
rain 1hr
cm
rain 24hr
cm
rain mn
cm
humidity
%
barometer
mb
20260905223523 12 191 4.8 16.1 0.00 0.38 0.00 90 1017.0
20260905223022 12 173 4.8 9.7 0.00 0.38 0.00 90 1017.0
20260905222520 12 190 4.8 14.5 0.00 0.38 0.00 90 1017.0
20260905222019 12 171 6.4 14.5 0.00 0.38 0.00 89 1017.0
20260905221517 12 162 4.8 9.7 0.00 0.38 0.00 89 1017.2
20260905221015 12 184 6.4 12.9 0.00 0.38 0.00 89 1017.0
20260905220534 12 173 4.8 12.9 0.00 0.38 0.00 89 1017.0
20260905220033 12 161 6.4 16.1 0.00 0.38 0.00 89 1016.9
20260905215531 12 189 6.4 14.5 0.00 0.38 0.38 89 1016.8
20260905215030 12 170 4.8 9.7 0.00 0.38 0.38 89 1016.7
20260905214528 12 164 3.2 6.4 0.00 0.38 0.38 90 1016.6
20260905214027 12 168 4.8 8.0 0.00 0.38 0.38 90 1016.8
20260905213525 12 177 4.8 8.0 0.00 0.38 0.38 90 1016.8
20260905213023 12 181 4.8 11.3 0.00 0.38 0.38 90 1016.7
20260905212523 13 180 6.4 14.5 0.00 0.38 0.38 90 1016.8
20260905212021 13 171 4.8 14.5 0.00 0.43 0.38 89 1016.6
20260905211519 13 183 4.8 16.1 0.00 0.51 0.38 89 1016.6
20260905211018 13 133 3.2 9.7 0.00 0.51 0.38 89 1016.7
20260905210516 13 158 4.8 12.9 0.00 0.51 0.38 90 1016.6
20260905210036 13 184 4.8 12.9 0.00 0.53 0.38 90 1016.6
20260905205533 13 177 6.4 16.1 0.00 0.53 0.38 91 1016.5
20260905205032 13 186 4.8 9.7 0.00 0.56 0.38 91 1016.3
20260905204530 13 187 6.4 12.9 0.00 0.56 0.38 92 1016.5
20260905204029 12 180 4.8 9.7 0.00 0.58 0.38 92 1016.4
20260905203528 12 182 4.8 8.0 0.00 0.58 0.38 93 1016.3
20260905203026 12 182 3.2 6.4 0.00 0.58 0.38 94 1016.2
20260905202525 12 191 6.4 11.3 0.00 0.58 0.38 94 1016.1
20260905202023 12 195 4.8 8.0 0.00 0.58 0.38 95 1016.2
20260905201523 12 189 4.8 8.0 0.00 0.58 0.38 95 1016.3
20260905201020 12 183 6.4 9.7 0.00 0.58 0.38 95 1016.3
20260905200519 12 183 4.8 9.7 0.00 0.58 0.38 95 1016.3
20260905200017 12 175 3.2 6.4 0.00 0.58 0.38 95 1016.4
20260905195516 12 176 3.2 6.4 0.00 0.58 0.38 95 1016.3
20260905195035 12 184 4.8 9.7 0.00 0.58 0.38 94 1016.3
20260905194533 12 187 4.8 8.0 0.00 0.58 0.38 95 1016.3
20260905194031 12 189 4.8 9.7 0.00 0.58 0.38 94 1016.4
20260905193530 12 181 4.8 8.0 0.00 0.58 0.38 95 1016.4
20260905193028 12 181 4.8 8.0 0.00 0.58 0.38 95 1016.4
20260905192528 12 171 4.8 9.7 0.05 0.58 0.38 95 1016.5
20260905192025 12 191 4.8 8.0 0.15 0.58 0.38 95 1016.4
20260905191523 12 187 3.2 6.4 0.23 0.58 0.38 95 1016.4
20260905191022 12 182 4.8 8.0 0.23 0.58 0.38 94 1016.3
20260905190521 12 185 4.8 8.0 0.23 0.58 0.38 94 1016.5
20260905190020 12 172 4.8 8.0 0.23 0.58 0.38 94 1016.5
20260905185518 12 171 3.2 9.7 0.23 0.58 0.38 93 1016.6
20260905185016 12 182 6.4 9.7 0.23 0.58 0.38 93 1016.7
20260905184535 12 172 4.8 9.7 0.23 0.58 0.38 93 1016.6
20260905184033 12 172 4.8 9.7 0.23 0.58 0.38 92 1016.8
20260905183537 12 179 3.2 9.7 0.25 0.58 0.38 92 1016.9
20260905183031 13 191 4.8 9.7 0.25 0.58 0.38 90 1017.1
20260905182534 13 128 4.8 19.3 0.20 0.53 0.33 89 1017.2
20260905182028 13 187 4.8 14.5 0.10 0.43 0.23 89 1017.1
20260905181526 13 181 3.2 9.7 0.03 0.36 0.15 90 1016.8
20260905181024 13 181 4.8 9.7 0.03 0.36 0.15 91 1016.6
20260905180522 13 185 6.4 8.0 0.03 0.36 0.15 90 1016.7
20260905180023 13 164 3.2 6.4 0.03 0.36 0.15 89 1016.7
20260905175520 13 171 4.8 8.0 0.03 0.36 0.15 88 1016.9
20260905175018 13 166 3.2 4.8 0.03 0.36 0.15 88 1016.6
20260905174517 12 74 3.2 6.4 0.00 0.33 0.15 89 1016.6
20260905174035 12 58 1.6 6.4 0.03 0.33 0.15 91 1016.4
20260905173534 12 173 0.0 1.6 0.00 0.33 0.13 90 1016.0
20260905173032 12 139 0.0 1.6 0.00 0.33 0.13 89 1016.0
20260905172531 12 204 0.0 3.2 0.00 0.33 0.13 88 1016.0
20260905172029 13 149 0.0 1.6 0.00 0.33 0.13 87 1016.1
20260905171528 13 155 0.0 1.6 0.00 0.33 0.13 84 1016.0
20260905171026 14 144 0.0 3.2 0.00 0.33 0.13 82 1016.1
20260905170526 14 132 1.6 4.8 0.00 0.33 0.13 80 1016.1
20260905170024 15 137 1.6 4.8 0.00 0.33 0.13 79 1016.1
20260905165522 15 65 3.2 6.4 0.00 0.33 0.13 78 1016.1
20260905165020 15 28 4.8 9.7 0.00 0.33 0.13 77 1016.2
20260905164520 15 8 6.4 17.7 0.00 0.33 0.13 73 1016.4
20260905164018 16 357 4.8 14.5 0.00 0.33 0.13 70 1016.4
20260905163516 16 349 4.8 14.5 0.00 0.33 0.13 69 1016.3
20260905163034 16 19 6.4 11.3 0.00 0.33 0.13 66 1016.4
20260905162533 17 47 6.4 19.3 0.00 0.33 0.13 63 1016.4
20260905162032 18 349 6.4 22.5 0.00 0.33 0.13 55 1016.0
20260905161530 19 348 6.4 16.1 0.00 0.33 0.13 52 1015.5
20260905161028 19 346 4.8 12.9 0.00 0.33 0.13 52 1015.3
20260905160527 19 218 6.4 14.5 0.00 0.33 0.13 51 1015.1
20260905160025 19 307 4.8 11.3 0.00 0.33 0.13 52 1015.2
20260905155524 19 169 4.8 8.0 0.00 0.33 0.13 52 1015.1
20260905155022 19 153 3.2 6.4 0.00 0.33 0.13 52 1015.0
20260905154521 19 194 4.8 16.1 0.00 0.33 0.13 52 1015.1
20260905154019 19 316 4.8 12.9 0.00 0.33 0.13 51 1015.0
20260905153518 20 143 3.2 12.9 0.00 0.33 0.13 51 1014.9
20260905153017 20 81 3.2 8.0 0.00 0.33 0.13 51 1015.0
20260905152535 19 180 3.2 8.0 0.00 0.33 0.13 52 1015.0
20260905152033 20 227 4.8 16.1 0.00 0.33 0.13 51 1014.9
20260905151532 20 207 4.8 17.7 0.00 0.33 0.13 51 1014.9
20260905151030 20 150 3.2 12.9 0.00 0.33 0.13 52 1015.0
20260905150529 20 212 4.8 11.3 0.00 0.33 0.13 52 1014.8
20260905150027 20 348 6.4 12.9 0.00 0.33 0.13 52 1015.0
20260905145526 20 346 4.8 12.9 0.00 0.33 0.13 52 1014.9
20260905145024 20 218 3.2 9.7 0.00 0.33 0.13 52 1014.8
20260905144523 20 184 4.8 12.9 0.00 0.33 0.13 52 1015.0
20260905144022 20 163 4.8 11.3 0.00 0.33 0.13 52 1015.0
20260905143520 20 55 3.2 9.7 0.00 0.33 0.13 52 1015.0
20260905143019 20 119 3.2 8.0 0.00 0.33 0.13 52 1014.9
20260905142518 20 7 6.4 17.7 0.00 0.33 0.13 51 1014.9
20260905142015 20 310 4.8 12.9 0.00 0.33 0.13 51 1014.9
20260905141534 20 210 3.2 11.3 0.00 0.33 0.13 51 1014.9
20260905141033 20 68 4.8 11.3 0.00 0.33 0.13 51 1014.8
20260905140531 20 331 4.8 11.3 0.00 0.33 0.13 51 1014.9
20260905140030 20 221 3.2 12.9 0.00 0.33 0.13 50 1014.8
20260905135528 20 284 6.4 16.1 0.00 0.33 0.13 50 1014.9
20260905135026 20 185 4.8 11.3 0.00 0.33 0.13 50 1014.7
20260905134525 21 70 6.4 12.9 0.00 0.33 0.13 49 1014.6
20260905134024 21 232 6.4 14.5 0.00 0.33 0.13 49 1014.7
20260905133522 21 130 4.8 17.7 0.00 0.33 0.13 51 1014.6
20260905133022 20 110 4.8 16.1 0.00 0.33 0.13 53 1014.7
20260905132519 20 328 8.0 16.1 0.00 0.33 0.13 54 1014.7
20260905132019 20 292 4.8 14.5 0.00 0.33 0.13 55 1014.8
20260905131516 20 224 6.4 14.5 0.00 0.33 0.13 56 1014.7
20260905131035 20 81 6.4 12.9 0.00 0.33 0.13 58 1014.7
20260905130533 20 341 6.4 17.7 0.00 0.33 0.13 58 1014.5
20260905130032 18 25 4.8 17.7 0.00 0.33 0.13 60 1014.6
20260905125530 19 357 6.4 17.7 0.00 0.33 0.13 59 1014.7
20260905125029 19 32 4.8 12.9 0.00 0.33 0.13 58 1014.7
20260905124527 20 334 4.8 12.9 0.00 0.33 0.13 56 1014.7
20260905124026 20 275 4.8 12.9 0.00 0.33 0.13 55 1014.4
20260905123524 21 288 4.8 17.7 0.00 0.33 0.13 50 1014.4
20260905123023 21 266 8.0 17.7 0.00 0.33 0.13 49 1014.2
20260905122521 21 298 9.7 33.8 0.00 0.33 0.13 48 1014.2
20260905122021 21 229 6.4 16.1 0.00 0.33 0.13 50 1014.3
20260905121518 20 203 6.4 17.7 0.00 0.33 0.13 51 1014.2
20260905121017 21 231 6.4 20.9 0.00 0.33 0.13 52 1014.1
20260905120535 21 230 6.4 20.9 0.00 0.33 0.13 52 1014.2
20260905120034 21 195 6.4 17.7 0.00 0.33 0.13 52 1014.1
20260905115533 21 165 4.8 11.3 0.00 0.33 0.13 53 1014.2
20260905115031 20 213 9.7 24.1 0.00 0.33 0.13 55 1014.2
20260905114530 19 247 11.3 25.7 0.00 0.33 0.13 57 1014.4
20260905114028 20 264 9.7 20.9 0.00 0.33 0.13 57 1014.3
20260905113526 20 212 11.3 24.1 0.00 0.33 0.13 56 1014.3
20260905113025 20 189 6.4 20.9 0.00 0.33 0.13 56 1014.1
20260905112523 21 232 8.0 37.0 0.00 0.33 0.13 54 1014.2
20260905112025 21 213 6.4 29.0 0.00 0.33 0.13 54 1014.0
20260905111520 20 264 9.7 30.6 0.00 0.33 0.13 54 1014.2
20260905111019 20 218 8.0 17.7 0.00 0.33 0.13 56 1014.2
20260905110517 20 225 12.9 30.6 0.00 0.33 0.13 56 1014.1
20260905110015 20 215 11.3 24.1 0.00 0.33 0.13 57 1014.1
20260905105534 20 186 9.7 25.7 0.00 0.33 0.13 59 1014.1
20260905105033 19 225 9.7 30.6 0.00 0.33 0.13 60 1014.1
20260905104531 19 174 8.0 24.1 0.00 0.33 0.13 60 1014.0
20260905104030 20 210 9.7 27.4 0.00 0.33 0.13 59 1013.9
20260905103528 20 214 6.4 14.5 0.00 0.33 0.13 60 1014.0
20260905103027 19 187 4.8 17.7 0.00 0.33 0.13 62 1013.9
20260905102526 19 92 4.8 14.5 0.00 0.33 0.13 63 1013.9
20260905102024 19 239 6.4 24.1 0.00 0.33 0.13 62 1013.9
20260905101522 20 257 4.8 11.3 0.00 0.33 0.13 61 1013.8
20260905101020 20 307 8.0 20.9 0.00 0.33 0.13 60 1013.7
20260905100519 20 347 8.0 27.4 0.00 0.33 0.13 60 1013.7
20260905100017 20 210 8.0 25.7 0.00 0.33 0.13 61 1013.8
20260905095516 19 232 8.0 22.5 0.00 0.33 0.13 62 1013.9
20260905095035 18 192 6.4 19.3 0.00 0.33 0.13 64 1013.9
20260905094533 18 282 8.0 20.9 0.00 0.33 0.13 64 1013.9
20260905094032 18 229 9.7 27.4 0.00 0.33 0.13 66 1013.8
20260905093532 19 222 9.7 22.5 0.00 0.33 0.13 66 1013.7
20260905093028 19 303 6.4 12.9 0.00 0.33 0.13 66 1013.7
20260905092528 19 345 9.7 24.1 0.00 0.33 0.13 66 1013.7
20260905092026 19 169 4.8 14.5 0.00 0.33 0.13 66 1013.7
20260905091524 18 205 8.0 22.5 0.00 0.33 0.13 69 1013.7
20260905091022 18 201 8.0 20.9 0.00 0.33 0.13 68 1013.6
20260905090521 18 221 6.4 17.7 0.00 0.33 0.13 68 1013.5
20260905090021 18 179 6.4 16.1 0.00 0.33 0.13 70 1013.7
20260905085518 18 202 4.8 17.7 0.00 0.33 0.13 69 1013.6
20260905085017 18 339 4.8 14.5 0.00 0.33 0.13 70 1013.7
20260905084535 17 247 6.4 24.1 0.00 0.33 0.13 71 1013.7
20260905084034 18 183 8.0 17.7 0.00 0.33 0.13 70 1013.6
20260905083533 18 244 9.7 19.3 0.00 0.33 0.13 70 1013.7
20260905083031 18 205 8.0 19.3 0.00 0.33 0.13 71 1013.6
20260905082529 18 228 6.4 19.3 0.00 0.33 0.13 71 1013.7
20260905082028 17 179 6.4 11.3 0.00 0.33 0.13 73 1013.5
20260905081527 17 298 6.4 14.5 0.00 0.33 0.13 72 1013.6
20260905081025 17 219 9.7 27.4 0.00 0.33 0.13 72 1013.6
20260905080524 17 202 8.0 24.1 0.00 0.33 0.13 74 1013.6
20260905080022 17 234 8.0 16.1 0.00 0.33 0.13 75 1013.5
20260905075520 17 189 8.0 19.3 0.00 0.33 0.13 74 1013.5
20260905075020 18 212 6.4 17.7 0.00 0.33 0.13 74 1013.3
20260905074517 17 205 6.4 14.5 0.00 0.33 0.13 76 1013.4
20260905074016 17 194 6.4 17.7 0.00 0.33 0.13 78 1013.3
20260905073534 17 213 6.4 20.9 0.00 0.33 0.13 78 1013.2
20260905073034 17 206 9.7 20.9 0.00 0.33 0.13 78 1013.0
20260905072532 17 43 4.8 14.5 0.00 0.33 0.13 78 1013.1
20260905072030 17 200 8.0 19.3 0.00 0.33 0.13 79 1013.1
20260905071530 16 212 6.4 14.5 0.00 0.33 0.13 80 1012.9
20260905071027 16 207 8.0 17.7 0.00 0.33 0.13 81 1013.0
20260905070525 16 188 6.4 16.1 0.00 0.33 0.13 82 1012.9
20260905070024 16 213 6.4 20.9 0.00 0.33 0.13 82 1012.9
20260905065522 16 199 6.4 16.1 0.00 0.33 0.13 82 1012.8
20260905065021 16 208 4.8 14.5 0.00 0.33 0.13 82 1012.6
20260905064519 16 193 6.4 17.7 0.00 0.33 0.13 82 1012.7
20260905064018 16 185 4.8 12.9 0.00 0.33 0.13 83 1012.8
20260905063516 16 142 4.8 14.5 0.00 0.33 0.13 82 1012.5
20260905063035 16 144 3.2 11.3 0.00 0.33 0.13 83 1012.6
20260905062534 16 182 4.8 9.7 0.00 0.33 0.13 83 1012.4
20260905062032 16 184 4.8 14.5 0.00 0.33 0.13 83 1012.4
20260905061530 16 156 4.8 12.9 0.00 0.33 0.13 83 1012.2
20260905061029 16 312 6.4 20.9 0.00 0.33 0.13 84 1012.3
20260905060527 16 208 8.0 27.4 0.00 0.33 0.13 84 1012.3
20260905060027 16 203 6.4 19.3 0.00 0.33 0.13 84 1012.3
20260905055524 16 194 3.2 12.9 0.00 0.33 0.13 85 1012.0
20260905055023 16 177 4.8 20.9 0.00 0.33 0.13 85 1012.0
20260905054521 16 219 4.8 9.7 0.00 0.33 0.13 85 1012.1
20260905054020 16 209 3.2 9.7 0.00 0.33 0.13 84 1012.0
20260905053520 16 342 4.8 11.3 0.00 0.33 0.13 84 1012.0
20260905053017 16 138 4.8 12.9 0.00 0.33 0.13 84 1011.9
20260905052536 16 193 6.4 14.5 0.00 0.33 0.13 85 1011.9
20260905052034 16 192 6.4 12.9 0.00 0.33 0.13 86 1011.8
20260905051533 16 157 6.4 12.9 0.00 0.33 0.13 87 1011.6
20260905051031 16 203 8.0 24.1 0.00 0.33 0.13 88 1011.5
20260905050529 16 188 6.4 16.1 0.00 0.33 0.13 88 1011.4
20260905050029 16 194 8.0 16.1 0.00 0.33 0.13 88 1011.3
20260905045527 16 179 6.4 14.5 0.00 0.33 0.13 89 1011.1
20260905045025 16 190 4.8 16.1 0.00 0.33 0.13 89 1011.0
20260905044524 16 187 6.4 17.7 0.00 0.33 0.13 89 1011.0
20260905044022 16 183 6.4 22.5 0.00 0.33 0.13 89 1010.9
20260905043521 16 197 6.4 16.1 0.00 0.33 0.13 89 1010.7
20260905043019 16 206 8.0 16.1 0.00 0.33 0.13 90 1010.8
20260905042517 16 200 6.4 12.9 0.00 0.33 0.13 90 1010.8
20260905042016 16 198 6.4 14.5 0.00 0.33 0.13 90 1010.7
20260905041534 16 185 8.0 17.7 0.00 0.33 0.13 90 1010.6
20260905041033 16 189 8.0 19.3 0.00 0.33 0.13 90 1010.4
20260905040531 16 197 6.4 12.9 0.00 0.33 0.13 91 1010.3
20260905040030 16 184 6.4 14.5 0.00 0.33 0.13 91 1010.4
20260905035528 16 168 4.8 12.9 0.00 0.33 0.13 91 1010.2
20260905035027 16 162 4.8 9.7 0.00 0.33 0.13 92 1010.4
20260905034526 16 192 4.8 17.7 0.00 0.33 0.13 92 1010.2
20260905034024 16 173 3.2 9.7 0.00 0.33 0.13 92 1010.2
20260905033524 16 191 4.8 16.1 0.00 0.33 0.13 92 1010.2
20260905033021 16 202 6.4 14.5 0.00 0.33 0.13 93 1010.0
20260905032519 16 186 6.4 11.3 0.00 0.33 0.13 93 1009.9
20260905032018 16 167 4.8 12.9 0.00 0.33 0.13 93 1010.0
20260905031517 16 185 6.4 20.9 0.00 0.33 0.13 93 1010.0
20260905031036 16 198 6.4 12.9 0.00 0.33 0.13 93 1010.0
20260905030533 16 177 6.4 12.9 0.00 0.33 0.13 93 1010.0
20260905030032 16 189 6.4 14.5 0.00 0.33 0.13 94 1010.0
20260905025530 16 186 4.8 19.3 0.00 0.33 0.13 94 1009.9
20260905025029 16 192 4.8 12.9 0.00 0.33 0.13 94 1009.9
20260905024527 16 174 4.8 11.3 0.03 0.33 0.13 94 1009.9
20260905024026 16 195 6.4 16.1 0.03 0.33 0.13 94 1009.9
20260905023525 16 189 6.4 14.5 0.03 0.33 0.13 93 1010.0
20260905023023 16 202 4.8 17.7 0.03 0.33 0.13 93 1009.9
20260905022522 16 187 6.4 12.9 0.03 0.33 0.13 92 1009.6
20260905022020 16 139 4.8 19.3 0.03 0.33 0.13 92 1009.5
20260905021519 16 196 6.4 14.5 0.03 0.33 0.13 91 1009.4
20260905021017 16 198 8.0 27.4 0.03 0.33 0.13 91 1009.5
20260905020515 16 190 8.0 17.7 0.03 0.33 0.13 91 1009.5
20260905020034 16 175 6.4 19.3 0.03 0.33 0.13 91 1009.3
20260905015532 16 218 8.0 17.7 0.03 0.33 0.10 91 1009.5
20260905015031 16 208 9.7 22.5 0.03 0.33 0.10 90 1009.5
20260905014530 16 201 6.4 16.1 0.00 0.33 0.10 90 1009.6
20260905014029 16 203 9.7 27.4 0.00 0.33 0.10 90 1009.5
20260905013528 16 199 8.0 16.1 0.03 0.33 0.10 90 1009.1
20260905013025 16 193 8.0 19.3 0.03 0.33 0.10 90 1008.8
20260905012524 16 186 9.7 20.9 0.03 0.33 0.10 90 1009.0
20260905012022 16 189 9.7 22.5 0.05 0.33 0.10 91 1009.2
20260905011521 16 200 8.0 16.1 0.08 0.33 0.10 92 1009.2
20260905011019 16 194 8.0 14.5 0.08 0.33 0.10 93 1009.0
20260905010518 17 195 6.4 14.5 0.08 0.30 0.10 92 1009.0
20260905010017 17 175 4.8 11.3 0.08 0.30 0.10 92 1008.9
20260905005536 17 201 8.0 16.1 0.08 0.30 0.10 94 1008.8
20260905005034 17 187 4.8 16.1 0.08 0.30 0.10 95 1008.7
20260905004532 17 186 6.4 11.3 0.08 0.30 0.10 95 1008.7
20260905004031 17 195 4.8 8.0 0.08 0.30 0.10 95 1008.6
20260905003529 17 177 4.8 9.7 0.05 0.30 0.08 95 1008.6
20260905003028 17 179 4.8 8.0 0.05 0.30 0.08 95 1008.7
20260905002526 17 190 4.8 8.0 0.05 0.28 0.08 94 1008.7
20260905002025 17 186 3.2 8.0 0.03 0.25 0.05 94 1008.9
20260905001523 17 180 4.8 8.0 0.00 0.23 0.03 94 1008.6
20260905001022 17 182 3.2 6.4 0.00 0.23 0.03 93 1008.4
20260905000520 17 189 4.8 9.7 0.00 0.23 0.03 94 1008.4
20260905000018 17 180 6.4 9.7 0.00 0.23 0.03 94 1008.2
20260904235517 17 188 6.4 9.7 0.00 0.23 0.03 94 1008.1
20260904235016 17 169 4.8 9.7 0.00 0.23 0.03 94 1008.2
20260904234534 17 196 3.2 6.4 0.00 0.23 0.03 94 1008.1
20260904234032 17 199 3.2 8.0 0.00 0.23 0.03 94 1008.1
20260904233532 17 187 3.2 8.0 0.00 0.23 0.03 95 1008.0
20260904233029 17 170 1.6 8.0 0.00 0.23 0.03 95 1008.1
20260904232528 17 186 4.8 9.7 0.00 0.23 0.00 95 1008.0
20260904232027 17 188 4.8 12.9 0.00 0.23 0.00 96 1007.7
20260904231525 17 192 4.8 9.7 0.00 0.23 0.00 96 1007.8
20260904231023 17 190 4.8 9.7 0.00 0.23 0.00 97 1007.8
20260904230522 17 188 4.8 8.0 0.00 0.23 0.00 97 1007.6
20260904230021 18 200 4.8 9.7 0.00 0.23 0.00 97 1007.5
20260904225519 18 185 3.2 6.4 0.00 0.23 0.00 97 1007.7
20260904225017 18 170 3.2 4.8 0.00 0.23 0.00 97 1007.6
20260904224516 18 169 1.6 4.8 0.00 0.23 0.00 96 1007.6
20260904224035 18 175 3.2 4.8 0.00 0.23 0.00 96 1007.5